Weather in Brovary

Ukraine / Kyiv Region     50°30′39″N   30°47′27″E
temp.,
°C
wind,
m/s
gust,
m/s
humid.,
%
clouds,
%
prec.,
mm/h
press.,
hPa
HPBL,
m
21 january, fri
fri2123:000sw51186100 0.3 1005550
02:00−2w61278100 0.4 1005500
05:00−3wsw7138067 0.0 1004781
08:00−3wsw71485100 0.1 1004932
11:00−2wsw91576100 0.0 10041114
14:00−2wsw91578100 0.1 10031165
17:00−2w81583100 0.1 10041060
20:00−2w8148099 0.3 1004908
22 january, sat
sat2223:00−3wsw71490100 0.1 1005783
02:00−2w61190100 0.2 1005684
05:00−3w51187100 0.1 1006734
08:00−4w5118599 0.1 1007581
11:00−3wsw61084100 0.0 1008707
14:00−2w4786100 0.3 1009659
17:00−3nw588796 0.5 1011600
20:00−4nw499381 0.6 1013533
23 january, sun
sun2323:00−6nw379375 0.1 1015259
02:00−6nw239695 0.1 1016119
05:00−8n129870 0.0 101833
08:00−7n369468 0.1 1020321
11:00−6nne4584100 0.1 1023534
14:00−6nne4580100 0.1 1024697
17:00−8nne489260 0.0 1028293
20:00−8nne479484 0.1 1030272
24 january, mon
mon2423:00−9nne379673 0.0 1031193
02:00−10n499564 0.1 1032213
05:00−10n5119498 0.0 1032290
08:00−10n6139384 0.0 1032323
11:00−7n61383100 0.0 1032434
14:00−5n61184100 0.1 1031545
17:00−6n5119293 0.3 1031466
20:00−7n489493 0.3 1032336
25 january, tue
tue2523:00−9n489679 0.0 1031223
02:00−9n369780 0.1 1031187
05:00−10nnw369679 0.0 1030177
08:00−10nnw489556 0.0 1029205
11:00−7nnw35816 0.0 1028302
14:00−5nw23725 0.0 1026363
17:00−8sw22905 0.0 102432
20:00−9wsw35909 0.0 102375